Temp
11 10 11 12 14 14 14 14 15 16 17 17 18 18 18 18 18 18 17 17 18 18 18 18 18 18 19 22 24 18 19 19 18 18 21 23 24 25 25 25 23 24 22 21 19 19 20
10 10 12 13 14 14 14 14 15 16 16 17 18 18 18 18 17 18 17 17 17 18 18 17 18 18 20 23 18 18 19 18 19 19 21 22 24 24 24 24 23 22 22 21 20 20 20
10 10 12 13 14 14 14 15 15 16 16 17 18 18 18 18 18 18 17 17 17 17 17 18 18 18 21 22 18 18 18 18 18 19 22 20 22 23 24 23 21 21 22 21 21 21 21
10 10 12 13 14 15 14 15 15 16 16 17 18 18 18 18 18 17 18 18 18 17 18 18 18 17 23 18 18 18 18 19 18 18 19 18 20 22 23 22 22 23 22 24 21 20 20
10 11 13 13 13 14 15 15 15 16 16 17 18 18 18 18 18 18 18 17 17 17 18 18 18 19 23 18 19 18 18 20 19 19 18 18 20 22 21 23 24 23 25 25 23 19 19
12 13 13 13 13 14 14 15 15 16 16 17 18 18 18 18 18 18 18 17 17 17 17 17 18 20 19 21 18 17 17 18 20 20 20 21 22 23 24 24 24 26 25 25 24 20 19
13 13 13 13 14 14 14 15 15 16 17 16 17 18 18 18 18 18 17 16 19 19 19 21 21 20 20 17 17 18 16 19 21 21 22 22 23 23 26 26 24 23 23 24 25 18 18
10 13 14 14 14 14 14 14 15 16 17 17 17 18 18 18 17 17 17 20 17 15 21 17 18 18 17 17 19 19 17 20 21 22 22 21 23 22 20 20 21 21 22 23 23 18 17
9 12 13 13 14 14 14 14 15 16 16 17 17 17 17 17 17 16 17 16 15 14 21 18 18 19 18 17 20 19 18 20 21 22 22 23 21 18 19 19 20 21 21 22 20 19 18
9 12 13 13 14 14 14 14 15 16 16 16 16 16 17 17 16 16 17 15 15 14 22 20 19 18 18 18 19 16 16 19 20 21 21 22 17 18 18 20 20 20 18 17 17 18 19
11 12 13 12 14 14 14 14 15 16 16 16 16 16 17 16 16 18 14 14 14 15 20 19 19 16 18 19 18 17 15 18 20 21 19 19 17 17 18 18 18 18 16 17 16 16 16
11 12 12 12 14 13 14 15 15 16 16 16 15 16 16 15 15 14 14 14 14 21 19 19 19 19 19 19 18 18 18 18 17 18 18 16 14 15 16 14 14 15 16 16 16 17 15
11 12 12 13 13 13 14 15 15 16 16 16 15 15 15 15 16 14 14 16 21 21 20 20 19 19 18 19 19 18 19 18 19 19 20 17 16 13 14 15 14 14 16 17 17 15 18
11 11 12 13 13 14 14 15 16 16 16 16 15 15 14 14 13 13 14 20 20 21 20 17 17 18 19 17 18 18 19 20 16 17 19 20 19 14 12 13 12 15 13 17 17 21 22
11 11 12 13 13 14 14 15 16 16 16 16 14 14 13 13 14 13 19 21 21 18 16 17 18 19 20 17 17 19 19 18 14 14 17 19 18 11 10 12 12 14 14 14 13 13 15
11 11 12 13 13 13 14 15 16 16 16 15 14 15 14 13 14 14 20 19 17 14 14 16 19 18 20 19 19 19 19 12 13 12 13 15 16 12 10 11 10 11 11 14 13 15 18
10 11 12 12 13 13 14 15 16 16 15 14 14 18 13 14 14 18 18 17 14 13 13 15 17 17 17 17 17 18 16 13 12 13 13 12 13 13 11 11 12 10 10 11 11 15 16
10 11 11 12 12 13 14 15 16 16 15 14 15 19 13 13 18 16 17 14 12 13 14 14 14 14 15 15 16 16 15 14 11 12 13 10 11 14 16 5 5 8 10 10 14 14 14
7 10 11 12 12 12 13 14 16 16 14 13 18 17 13 13 19 17 13 12 12 13 12 13 13 13 13 15 14 15 14 11 11 12 12 8 12 14 14 8 7 8 7 7 8 10 12
7 9 11 11 11 12 13 14 15 14 14 13 17 17 16 14 13 14 14 13 12 11 11 11 12 13 13 14 14 14 14 12 11 12 9 11 12 12 14 15 11 9 8 7 9 11 13
5 9 10 11 11 12 12 13 14 14 13 13 13 11 10 13 12 13 13 12 13 12 12 12 12 12 11 12 14 13 13 13 11 10 11 10 9 13 13 13 11 9 9 8 7 9 10
5 7 9 10 10 11 12 13 14 15 14 10 12 12 11 11 11 13 12 11 11 10 10 11 12 11 11 11 12 11 10 12 12 11 11 10 10 9 7 11 10 8 9 8 8 8 8
4 6 8 9 9 11 12 13 14 15 14 10 8 8 11 8 11 12 11 10 10 9 9 9 10 10 11 11 9 9 9 10 10 9 9 7 9 8 9 10 9 8 8 7 8 7 7
5 6 6 8 8 9 10 11 12 13 13 9 4 8 11 11 11 11 10 9 10 10 10 10 9 9 8 7 8 7 7 7 8 8 9 7 7 8 8 8 9 7 4 4 6 5 4
4 4 6 7 8 8 9 10 11 11 11 9 4 8 10 11 11 10 9 10 9 8 8 8 8 7 7 7 9 10 10 9 8 7 7 8 8 8 8 10 11 10 6 5 5 7 5
4 4 5 7 7 7 8 9 10 10 10 8 5 5 8 9 13 11 10 9 11 10 8 7 6 5 6 8 8 9 12 11 9 7 5 6 7 7 9 7 8 9 7 6 5 6 4
3 5 5 5 6 7 8 8 8 9 9 8 6 5 7 8 9 9 10 10 8 8 8 6 4 5 6 8 8 10 11 9 9 9 5 5 5 6 7 7 9 8 5 5 6 6 5
4 4 4 4 4 4 5 7 7 8 8 8 5 5 5 7 6 5 6 7 6 7 9 4 5 4 5 6 8 9 7 7 5 9 6 6 6 6 6 6 6 7 5 6 6 6 6
3 3 3 3 3 3 2 3 5 6 6 7 5 4 3 5 4 1 1 0 2 2 5 3 3 4 5 6 5 5 6 4 5 7 7 4 7 8 8 8 7 7 7 7 6 5 5
Height
801 800 797 796 792 791 789 786 783 780 778 777 776 774 772 772 771 770 770 770 769 769 767 768 768 767 768 764 760 765 764 765 766 766 765 763 760 758 760 759 765 765 770 774 777 779 778
801 800 798 797 794 792 790 786 783 781 779 778 776 773 772 773 771 769 769 768 768 766 767 768 767 766 768 766 766 764 765 766 768 766 764 764 759 758 759 762 767 768 770 773 777 777 777
802 800 798 796 795 792 791 788 784 781 780 777 775 774 774 772 770 768 767 767 765 766 767 766 766 767 766 764 766 766 765 767 766 765 764 765 763 762 759 766 768 770 772 773 773 774 774
802 800 798 796 795 791 790 787 784 782 780 777 774 773 771 770 768 767 766 765 764 766 766 765 766 767 760 765 766 767 767 768 766 766 766 765 764 763 763 765 767 768 769 768 772 775 774
803 800 799 797 795 792 790 787 785 781 778 776 773 771 770 769 768 766 765 764 764 765 765 765 766 767 760 765 766 767 768 766 766 767 766 766 765 764 768 765 764 764 763 761 767 776 776
801 801 799 797 795 793 790 788 785 781 778 775 773 771 769 768 766 765 764 764 764 765 764 766 766 768 765 764 767 768 767 767 765 766 766 765 763 762 761 762 769 755 761 755 762 775 775
801 800 799 797 795 792 789 787 783 780 777 774 771 768 767 766 765 763 764 765 767 765 764 761 762 763 764 768 768 768 767 767 765 763 764 764 766 763 748 748 755 762 763 762 753 779 779
802 799 798 796 794 791 788 786 782 779 775 772 769 767 765 764 763 763 763 763 766 769 762 765 765 766 767 768 765 766 768 766 764 763 762 767 764 759 764 767 768 767 767 764 760 779 782
803 799 797 796 793 790 788 785 781 778 774 771 768 766 764 764 763 764 765 766 766 767 762 765 765 765 767 768 762 765 767 762 761 760 762 761 765 772 771 772 772 767 768 764 774 776 775
803 799 795 796 792 790 788 785 781 778 774 771 768 766 765 764 767 765 766 766 766 767 761 763 765 766 767 765 766 769 769 767 764 763 763 761 775 775 774 770 770 773 776 781 783 782 779
802 797 796 795 791 790 787 784 780 777 774 771 768 766 765 765 766 765 768 767 767 770 781 767 765 767 766 767 768 769 770 766 763 762 770 768 777 779 776 773 774 779 785 783 787 788 791
801 798 796 794 791 789 786 783 779 776 773 770 767 766 765 766 766 767 766 767 769 769 783 765 765 766 766 765 766 768 767 768 770 770 770 778 784 783 783 790 788 789 786 787 787 784 797
801 797 796 793 791 788 785 781 778 774 771 768 766 766 766 766 766 766 766 768 768 773 762 766 766 766 767 764 766 766 766 770 769 772 765 776 779 791 790 786 792 792 784 783 785 795 774
800 797 795 792 791 786 783 779 776 773 770 767 766 766 767 766 766 766 768 764 774 761 762 770 770 768 766 770 768 767 765 762 775 774 769 764 770 788 798 795 795 787 797 780 781 756 747
799 799 796 794 789 785 781 778 774 770 768 766 766 767 768 767 766 767 765 767 764 771 777 773 768 765 763 769 772 765 765 772 786 785 776 767 768 800 803 799 799 790 793 791 799 795 785
801 799 795 791 787 784 780 776 771 768 766 765 767 767 769 767 766 767 764 769 773 783 782 777 768 768 764 766 767 763 766 792 788 793 791 781 779 795 805 803 805 799 802 789 796 784 765
800 797 794 790 787 783 779 774 770 766 765 764 766 764 769 767 767 764 769 776 783 788 787 782 776 775 776 776 775 769 779 791 792 791 791 792 790 791 800 796 789 805 801 799 798 781 767
799 797 795 791 787 784 778 772 768 764 763 764 765 763 769 768 767 772 772 783 789 788 786 785 784 785 784 782 779 777 780 788 797 795 789 801 795 784 773 821 822 812 800 800 780 779 779
802 798 795 791 788 783 777 770 765 763 762 763 761 764 769 767 763 772 785 789 791 788 792 788 788 790 789 784 785 782 785 796 796 794 795 809 790 782 776 809 814 810 812 815 809 801 780
801 799 795 793 788 783 776 769 764 762 762 764 764 764 769 773 780 778 781 787 790 795 795 795 793 791 788 785 787 786 785 794 797 796 803 798 792 787 775 771 792 802 805 813 805 792 773
804 801 798 794 790 785 778 771 765 763 763 765 769 782 787 782 784 785 785 790 788 791 795 795 793 794 797 794 786 786 791 790 797 801 800 802 801 783 778 778 786 796 795 803 807 790 789
807 804 801 797 792 786 780 775 768 764 764 768 773 779 787 791 792 786 790 796 793 800 802 796 795 800 798 797 795 797 800 793 792 798 798 804 799 802 805 783 788 793 790 792 794 792 792
811 808 804 800 795 790 784 779 773 768 766 773 782 783 782 799 792 788 795 799 801 804 806 805 804 803 800 802 808 808 808 805 803 805 804 814 803 805 790 786 794 793 783 786 784 788 788
814 810 808 804 800 795 790 786 782 777 774 776 784 786 783 793 792 792 800 801 801 802 801 804 807 806 813 815 811 811 810 808 806 804 805 808 811 806 798 796 788 785 796 797 793 793 797
818 816 810 808 804 802 798 793 790 787 785 781 786 788 787 791 793 800 802 801 806 808 808 808 808 814 816 812 803 796 793 800 800 804 808 807 804 801 799 780 761 765 786 794 795 780 791
821 818 815 812 810 807 804 801 797 793 792 789 791 791 792 793 790 795 798 802 797 800 806 809 816 817 815 809 805 799 776 777 788 804 812 812 806 806 788 798 774 763 781 785 792 784 788
825 821 819 818 815 812 809 805 803 800 797 796 797 796 796 796 800 801 797 798 804 806 803 812 817 815 816 805 801 790 778 790 784 782 808 809 807 801 791 784 766 771 786 790 787 782 787
829 826 824 821 819 816 813 809 807 804 802 801 802 800 801 800 806 808 809 808 810 808 801 819 815 817 815 812 802 790 797 793 802 778 794 794 794 792 789 784 785 777 790 787 781 781 782
833 830 827 825 823 820 817 813 810 808 806 802 804 802 801 804 810 813 815 816 817 817 813 818 819 818 815 812 813 810 802 811 800 785 789 800 779 774 773 769 777 778 776 778 782 783 783
Wind_Speed
9 10 10 11 12 13 13 14 15 14 12 11 9 9 8 10 9 8 7 8 7 6 5 4 3 1 1 5 1 3 3 1 1 2 5 5 6 3 4 2 3 5 3 1 2 1 1
8 9 9 9 10 12 13 14 14 14 14 12 11 9 9 10 9 9 7 6 6 5 5 5 3 1 3 6 3 5 1 2 2 3 2 4 3 2 2 1 4 2 3 3 2 1 1
9 9 9 9 10 11 12 13 14 14 14 13 12 9 9 10 10 8 5 6 5 5 5 3 2 2 4 2 1 4 2 1 1 1 2 0 1 3 2 4 3 4 3 4 7 3 1
8 9 8 9 10 11 13 14 14 14 14 14 13 9 9 9 9 6 6 6 4 3 1 2 2 0 3 2 1 3 0 1 2 2 2 2 1 3 2 5 4 4 3 4 6 2 4
7 7 7 9 10 10 12 13 14 15 15 15 14 10 8 8 8 7 7 5 1 2 2 2 1 3 1 2 2 0 1 2 3 2 3 2 0 0 3 5 5 6 6 6 4 3 1
6 6 8 9 10 10 11 13 14 15 15 15 14 11 8 7 7 6 3 3 4 3 2 1 1 3 4 2 2 1 1 2 1 4 3 4 4 5 6 7 6 5 6 5 7 3 5
6 6 7 9 10 11 12 13 14 15 15 17 16 10 8 7 7 2 4 1 3 3 4 3 3 3 3 1 2 2 1 3 4 4 5 4 7 9 9 8 7 6 7 10 5 3 4
6 6 8 9 10 11 13 14 15 16 16 18 15 10 8 7 2 1 1 3 2 1 3 0 1 1 1 1 3 3 1 5 5 8 4 4 11 3 4 0 3 5 7 10 2 2 3
8 5 7 9 10 12 13 14 15 16 17 18 14 9 7 4 1 1 1 1 1 1 4 3 1 1 1 3 1 3 2 2 6 8 9 12 3 3 2 3 6 8 9 7 5 3 8
8 6 7 9 9 11 13 14 14 15 16 17 12 8 5 1 1 2 1 1 1 1 4 5 3 2 2 1 3 2 3 3 4 5 4 7 3 3 4 6 6 8 4 1 2 2 3
7 7 7 10 10 12 13 14 14 15 15 16 9 7 2 1 1 1 1 2 2 1 4 3 3 1 0 3 1 2 1 2 6 3 3 1 2 4 6 0 2 2 2 1 1 2 4
6 7 7 9 10 12 13 14 14 15 15 14 6 7 2 1 1 2 2 2 0 3 5 2 1 1 3 2 1 2 1 2 2 2 2 2 1 2 4 5 3 7 2 2 1 1 3
6 7 8 9 11 12 13 14 14 14 14 13 5 2 3 1 1 0 3 2 3 4 2 2 1 1 1 0 2 1 1 2 2 3 7 4 3 3 1 2 4 2 2 2 3 2 5
6 7 9 10 11 13 14 15 14 14 13 10 2 2 5 5 2 2 2 3 6 2 3 1 1 2 2 2 2 1 2 4 2 3 4 4 4 1 2 2 1 7 4 3 5 7 5
4 7 8 10 12 13 14 14 13 12 11 6 2 2 2 8 2 2 3 3 3 4 2 5 2 3 4 2 2 2 1 2 3 4 4 3 2 3 4 1 0 4 5 3 2 2 3
4 7 9 10 12 13 15 15 13 10 8 1 2 3 2 6 1 1 3 1 0 3 4 2 3 2 3 2 2 1 1 2 2 2 1 3 4 1 3 1 1 1 2 3 2 4 8
6 8 9 11 13 15 17 16 14 9 6 2 2 2 3 2 1 2 2 2 2 2 3 4 3 2 2 3 3 2 2 2 1 1 1 1 2 4 2 6 4 4 2 3 2 3 4
8 9 10 12 14 16 19 18 14 8 5 2 1 2 5 1 2 1 2 2 1 2 3 2 1 2 2 2 2 1 1 3 2 2 1 3 1 5 3 3 2 2 1 2 4 4 2
11 12 13 15 16 18 20 20 14 5 1 2 1 2 3 1 2 2 3 3 4 2 4 3 2 3 1 1 2 1 1 3 2 2 3 3 2 4 3 2 2 2 3 1 0 2 8
15 15 16 17 18 21 23 23 14 6 2 3 1 1 3 3 3 3 2 2 3 3 3 2 2 1 1 2 0 1 0 2 2 2 3 1 3 6 10 10 2 3 5 4 3 4 9
16 17 17 19 21 23 26 28 17 8 4 3 4 2 2 2 5 6 2 1 2 2 4 4 2 6 3 2 3 1 1 1 4 2 1 2 4 11 13 13 8 7 7 7 10 12 11
18 19 20 22 25 26 27 29 28 10 7 7 2 2 2 3 2 2 3 3 3 3 4 2 2 2 2 2 3 6 4 2 3 2 1 1 3 3 5 13 10 12 13 12 13 13 14
19 20 22 25 27 29 30 31 31 25 7 6 3 2 1 2 2 1 2 2 2 1 2 2 2 3 3 2 3 6 7 8 8 5 3 1 2 2 5 3 9 10 13 10 5 4 4
20 22 22 25 29 30 31 31 30 31 23 8 4 1 1 2 1 2 4 3 3 2 1 1 1 2 3 6 9 5 6 7 9 10 10 4 4 3 4 5 5 1 2 1 2 3 3
21 21 24 26 28 29 30 32 28 26 26 23 7 2 2 3 3 3 3 1 1 2 2 2 2 2 4 5 3 4 4 3 4 2 6 10 7 3 4 7 13 10 5 5 5 1 6
21 23 24 25 26 26 27 28 28 23 23 17 20 8 2 3 2 3 3 3 2 2 2 2 2 2 2 2 2 3 4 1 4 4 3 5 9 5 5 5 7 4 6 5 3 8 8
20 22 23 24 25 26 26 26 26 25 19 16 13 14 3 2 2 1 1 1 2 1 1 1 1 1 1 2 3 5 5 0 5 5 6 5 6 14 12 9 8 6 9 6 4 1 5
20 21 22 23 24 25 25 25 25 24 21 11 7 15 4 2 4 3 3 1 1 1 1 3 1 1 1 3 3 2 3 1 3 5 4 9 7 6 6 7 10 11 8 4 3 4 7
18 20 21 22 22 23 23 22 22 21 20 11 4 11 7 3 3 5 8 8 6 4 2 1 1 2 3 2 1 3 3 1 4 8 7 4 6 5 8 4 9 9 9 5 8 11 10
Wind_Direction
3 4 14 9 18 12 11 13 10 9 7 356 342 334 335 335 324 315 305 288 275 282 296 289 274 255 186 228 51 355 350 344 167 181 224 224 226 241 233 162 177 245 150 125 105 85 304
2 4 7 13 15 11 8 10 10 10 3 359 347 338 327 329 323 312 304 300 277 286 283 271 259 199 260 251 91 20 81 55 241 231 211 228 303 310 67 118 254 70 158 150 183 188 264
356 1 3 7 4 12 6 7 10 8 2 357 353 339 322 327 327 324 308 300 290 280 283 236 208 159 253 340 82 22 100 216 275 262 227 117 65 260 143 154 142 150 218 203 201 206 251
358 359 1 1 1 6 1 3 5 4 359 356 352 339 330 330 332 330 318 312 292 252 194 145 139 173 302 141 113 21 177 168 72 49 101 81 70 107 319 124 169 224 239 242 118 212 142
349 358 1 357 355 0 358 357 358 358 356 354 350 340 332 325 329 327 324 322 234 179 142 108 63 263 203 120 177 9 355 200 124 96 72 99 286 129 165 223 222 205 270 213 176 168 256
345 353 351 351 350 352 357 353 355 355 353 352 345 337 328 325 331 333 10 61 122 111 90 98 253 240 151 109 115 189 22 149 179 148 154 212 215 237 223 221 242 279 234 219 263 117 226
344 347 347 347 347 349 353 350 354 354 350 349 344 338 332 328 323 340 109 60 214 174 218 328 45 341 109 93 159 105 14 192 187 224 221 187 229 225 249 231 317 297 286 276 279 98 285
325 338 344 346 343 349 349 348 352 352 350 347 343 339 336 336 0 71 143 282 40 346 254 159 294 250 39 263 213 142 298 215 208 226 180 209 240 28 67 80 242 247 259 266 200 161 261
314 330 343 338 343 348 345 345 350 350 350 347 343 342 338 340 146 42 218 108 130 68 258 137 186 253 109 248 275 143 277 226 239 234 223 252 54 99 209 197 224 236 246 269 276 316 243
309 325 348 332 341 342 342 342 346 347 349 347 345 342 339 346 145 172 133 159 140 102 261 142 169 129 195 281 213 18 10 304 209 260 229 259 87 207 225 244 232 273 27 281 275 291 275
312 332 337 330 340 338 339 338 342 343 344 347 349 352 0 201 344 244 174 168 127 247 290 68 118 46 172 255 64 116 14 211 248 198 199 143 176 186 224 290 247 46 57 105 178 284 334
312 332 335 331 336 332 334 334 339 340 341 344 338 12 9 354 32 149 150 128 203 225 251 132 111 130 224 188 124 121 178 102 28 181 238 30 64 345 33 70 44 123 141 178 245 252 248
322 338 329 333 332 330 331 332 335 337 340 343 341 340 28 50 75 135 137 215 232 239 118 101 59 8 326 36 185 242 192 184 262 247 211 160 159 88 6 156 110 196 206 270 228 201 251
336 342 330 335 329 334 334 335 334 335 339 340 9 85 58 59 56 138 208 218 243 48 42 70 323 257 264 351 156 196 212 220 107 278 298 268 231 118 9 34 135 193 165 246 270 283 318
342 322 333 334 343 343 343 338 335 333 339 347 142 100 77 352 21 143 241 225 324 23 343 340 231 241 167 169 264 258 88 26 28 359 241 286 172 117 60 28 334 146 209 31 286 204 256
340 344 351 356 0 355 350 346 342 338 344 41 148 167 76 342 114 214 246 253 317 17 333 279 281 357 301 47 281 266 115 27 39 9 317 35 275 46 105 202 118 215 13 185 191 271 269
20 11 13 15 9 3 357 354 349 347 354 130 180 215 355 29 89 219 247 65 83 46 351 356 343 309 2 351 334 312 57 101 30 46 331 11 286 121 172 202 171 162 229 215 306 261 267
37 33 29 26 18 9 4 358 353 352 6 155 191 230 353 158 204 37 128 53 340 23 25 42 50 36 353 0 297 267 336 39 86 337 321 56 274 256 291 73 47 354 27 224 243 192 243
50 44 36 32 25 18 11 3 356 356 23 153 240 88 13 347 247 133 116 85 54 36 32 16 70 9 323 306 293 279 70 75 70 4 16 239 203 297 202 129 141 222 182 200 253 264 244
51 45 41 35 31 27 20 14 9 23 73 106 199 170 69 63 40 71 133 100 110 57 70 35 32 257 290 261 202 316 198 109 40 44 51 253 266 240 264 311 114 228 191 205 214 251 272
47 46 42 37 35 36 29 27 26 39 82 100 10 73 360 55 51 68 62 29 100 49 27 24 95 51 38 321 304 293 7 320 135 105 341 341 260 274 280 288 287 246 250 200 210 242 249
49 47 45 40 37 37 36 35 33 43 68 76 90 131 86 72 36 79 31 47 65 78 4 42 73 16 340 284 314 303 343 268 294 87 265 59 270 352 273 268 250 263 258 247 247 253 264
51 48 47 43 40 39 38 37 38 38 59 85 65 75 111 348 72 130 61 112 116 179 117 55 17 320 278 331 325 309 286 283 277 272 269 312 289 302 268 14 314 271 252 231 211 203 224
52 49 46 45 42 41 40 40 39 41 49 85 67 18 85 89 82 88 159 175 175 177 197 180 274 252 49 310 276 251 251 255 254 243 229 205 202 244 272 299 252 61 164 63 256 273 206
52 46 47 46 43 41 40 39 39 40 43 64 51 32 62 110 95 149 175 188 173 194 241 266 158 36 329 300 288 289 205 228 192 190 200 230 222 241 247 243 281 240 188 189 190 232 190
51 46 44 45 41 40 39 39 38 38 37 49 37 49 29 118 165 107 163 187 269 221 201 183 142 330 271 263 241 250 265 10 205 183 182 217 243 246 208 249 264 98 135 115 113 268 159
48 46 42 38 35 33 33 35 33 32 32 48 35 25 353 87 111 85 145 223 122 150 242 152 167 170 300 216 231 236 251 117 234 217 176 193 212 226 232 246 261 79 137 155 229 57 145
44 42 38 33 29 26 23 24 26 27 26 37 37 22 26 45 76 18 32 61 102 243 267 111 210 132 187 231 260 257 265 157 288 247 185 197 196 200 237 252 256 133 140 236 28 297 328
39 35 31 28 24 21 16 15 14 20 24 29 36 9 49 55 75 68 85 53 43 23 345 103 49 357 4 273 249 313 268 215 306 271 181 247 239 284 209 228 125 184 282 313 319 311 307